| time (UTC) | temp F | wind direction | speed MPH | gust MPH | rain 1hr in | rain 24hr in | rain mn in | humidity % | barometer mb |
| 20260507025552 | 45 | 291 | 0.0 | 1.0 | 0.00 | 0.06 | 0.06 | 39 | 1019.5 |
| 20260507025049 | 46 | 113 | 0.0 | 0.0 | 0.00 | 0.06 | 0.06 | 38 | 1019.3 |
| 20260507024547 | 47 | 141 | 0.0 | 0.0 | 0.00 | 0.06 | 0.06 | 34 | 1019.6 |
| 20260507024044 | 46 | 11 | 0.0 | 1.0 | 0.00 | 0.06 | 0.06 | 33 | 1019.6 |
| 20260507023539 | 46 | 324 | 0.0 | 0.0 | 0.00 | 0.06 | 0.06 | 34 | 1019.2 |
| 20260507023037 | 45 | 3 | 0.0 | 0.0 | 0.00 | 0.06 | 0.06 | 34 | 1019.2 |
| 20260507022534 | 44 | 174 | 0.0 | 0.0 | 0.00 | 0.06 | 0.06 | 39 | 1018.8 |
| 20260507022029 | 45 | 173 | 0.0 | 0.0 | 0.00 | 0.06 | 0.06 | 36 | 1019.1 |
| 20260507021525 | 45 | 136 | 0.0 | 0.0 | 0.00 | 0.06 | 0.06 | 34 | 1018.8 |
| 20260507021022 | 46 | 221 | 0.0 | 0.0 | 0.00 | 0.06 | 0.06 | 38 | 1018.7 |
| 20260507020520 | 45 | 248 | 0.0 | 1.0 | 0.00 | 0.06 | 0.06 | 37 | 1018.7 |
| 20260507020016 | 46 | 179 | 0.0 | 0.0 | 0.00 | 0.06 | 0.06 | 37 | 1018.6 |
| 20260507015515 | 47 | 193 | 0.0 | 0.0 | 0.00 | 0.06 | 0.06 | 36 | 1018.6 |
| 20260507015012 | 48 | 230 | 0.0 | 0.0 | 0.00 | 0.06 | 0.06 | 38 | 1018.4 |
| 20260507014508 | 49 | 197 | 0.0 | 0.0 | 0.00 | 0.06 | 0.06 | 35 | 1018.6 |
| 20260507014004 | 48 | 8 | 0.0 | 1.0 | 0.00 | 0.06 | 0.06 | 32 | 1018.1 |
| 20260507013501 | 48 | 259 | 0.0 | 0.0 | 0.00 | 0.06 | 0.06 | 33 | 1018.4 |
| 20260507012958 | 49 | 192 | 0.0 | 0.0 | 0.00 | 0.06 | 0.06 | 35 | 1018.1 |
| 20260507012455 | 50 | 150 | 0.0 | 0.0 | 0.00 | 0.06 | 0.06 | 31 | 1018.1 |
| 20260507011951 | 50 | 86 | 0.0 | 0.0 | 0.00 | 0.06 | 0.06 | 32 | 1017.9 |
| 20260507011448 | 50 | 39 | 0.0 | 1.0 | 0.00 | 0.06 | 0.06 | 29 | 1017.6 |
| 20260507010944 | 50 | 236 | 1.0 | 2.0 | 0.00 | 0.06 | 0.06 | 28 | 1017.5 |
| 20260507010439 | 51 | 215 | 0.0 | 0.0 | 0.00 | 0.06 | 0.06 | 29 | 1017.4 |
| 20260507005936 | 51 | 351 | 2.0 | 5.0 | 0.00 | 0.06 | 0.06 | 27 | 1017.4 |
| 20260507005433 | 52 | 111 | 0.0 | 1.0 | 0.00 | 0.06 | 0.06 | 26 | 1017.3 |
| 20260507004930 | 52 | 51 | 3.0 | 3.0 | 0.00 | 0.06 | 0.06 | 27 | 1017.1 |
| 20260507004426 | 52 | 18 | 3.0 | 3.0 | 0.00 | 0.06 | 0.06 | 27 | 1017.3 |
| 20260507003924 | 52 | 87 | 1.0 | 1.0 | 0.00 | 0.06 | 0.06 | 25 | 1017.4 |
| 20260507003419 | 53 | 23 | 1.0 | 1.0 | 0.00 | 0.06 | 0.06 | 26 | 1017.1 |
| 20260507002914 | 54 | 305 | 4.0 | 6.0 | 0.00 | 0.06 | 0.06 | 24 | 1017.0 |
| 20260507002410 | 54 | 35 | 0.0 | 1.0 | 0.00 | 0.06 | 0.06 | 26 | 1017.0 |
| 20260507001908 | 54 | 77 | 3.0 | 3.0 | 0.00 | 0.06 | 0.06 | 28 | 1017.0 |
| 20260507001404 | 54 | 231 | 2.0 | 2.0 | 0.00 | 0.06 | 0.06 | 25 | 1016.7 |
| 20260507000902 | 55 | 61 | 3.0 | 6.0 | 0.00 | 0.06 | 0.06 | 27 | 1016.8 |
| 20260507000358 | 54 | 68 | 1.0 | 1.0 | 0.00 | 0.06 | 0.06 | 28 | 1016.7 |
| 20260506235853 | 55 | 24 | 3.0 | 3.0 | 0.00 | 0.06 | 0.06 | 27 | 1016.7 |
| 20260506235350 | 55 | 97 | 1.0 | 2.0 | 0.00 | 0.06 | 0.06 | 29 | 1016.4 |
| 20260506234846 | 55 | 92 | 2.0 | 3.0 | 0.00 | 0.06 | 0.06 | 27 | 1016.7 |
| 20260506234344 | 55 | 49 | 3.0 | 5.0 | 0.00 | 0.06 | 0.06 | 29 | 1016.3 |
| 20260506233842 | 55 | 74 | 4.0 | 7.0 | 0.00 | 0.06 | 0.06 | 30 | 1016.3 |
| 20260506233337 | 55 | 91 | 3.0 | 6.0 | 0.00 | 0.06 | 0.06 | 31 | 1016.2 |
| 20260506232835 | 55 | 64 | 1.0 | 2.0 | 0.00 | 0.06 | 0.06 | 30 | 1016.4 |
| 20260506232330 | 55 | 85 | 3.0 | 3.0 | 0.00 | 0.06 | 0.06 | 28 | 1016.0 |
| 20260506231827 | 56 | 50 | 0.0 | 0.0 | 0.00 | 0.06 | 0.06 | 30 | 1016.0 |
| 20260506231325 | 57 | 106 | 5.0 | 6.0 | 0.00 | 0.06 | 0.06 | 28 | 1016.2 |
| 20260506230822 | 57 | 301 | 1.0 | 1.0 | 0.00 | 0.06 | 0.06 | 28 | 1016.0 |
| 20260506230319 | 58 | 41 | 1.0 | 1.0 | 0.00 | 0.06 | 0.06 | 27 | 1015.9 |
| 20260506225814 | 57 | 46 | 2.0 | 3.0 | 0.00 | 0.06 | 0.06 | 30 | 1015.8 |
| 20260506225312 | 57 | 215 | 1.0 | 2.0 | 0.00 | 0.06 | 0.06 | 30 | 1015.9 |
| 20260506224809 | 57 | 72 | 2.0 | 3.0 | 0.00 | 0.06 | 0.06 | 32 | 1015.8 |
| 20260506224306 | 56 | 274 | 3.0 | 3.0 | 0.00 | 0.06 | 0.06 | 33 | 1015.9 |
| 20260506223802 | 56 | 276 | 2.0 | 5.0 | 0.00 | 0.06 | 0.06 | 32 | 1015.8 |
| 20260506223257 | 56 | 196 | 0.0 | 0.0 | 0.00 | 0.06 | 0.06 | 33 | 1015.8 |
| 20260506222755 | 55 | 57 | 4.0 | 6.0 | 0.00 | 0.06 | 0.06 | 34 | 1015.8 |
| 20260506222250 | 55 | 76 | 2.0 | 2.0 | 0.00 | 0.06 | 0.06 | 35 | 1015.8 |
| 20260506221748 | 56 | 219 | 1.0 | 2.0 | 0.00 | 0.06 | 0.06 | 34 | 1015.7 |
| 20260506221246 | 57 | 92 | 2.0 | 3.0 | 0.00 | 0.06 | 0.06 | 38 | 1015.6 |
| 20260506220743 | 58 | 313 | 1.0 | 2.0 | 0.00 | 0.06 | 0.06 | 38 | 1015.4 |
| 20260506220238 | 57 | 173 | 2.0 | 3.0 | 0.00 | 0.06 | 0.06 | 31 | 1015.6 |
| 20260506215735 | 58 | 304 | 2.0 | 2.0 | 0.00 | 0.06 | 0.06 | 33 | 1015.4 |
| 20260506215230 | 58 | 192 | 0.0 | 1.0 | 0.00 | 0.06 | 0.06 | 32 | 1015.2 |
| 20260506214722 | 58 | 239 | 3.0 | 7.0 | 0.00 | 0.06 | 0.06 | 30 | 1015.1 |
| 20260506214219 | 57 | 213 | 4.0 | 6.0 | 0.00 | 0.06 | 0.06 | 32 | 1015.1 |
| 20260506213717 | 58 | 305 | 8.0 | 9.0 | 0.00 | 0.06 | 0.06 | 29 | 1014.8 |
| 20260506213214 | 58 | 273 | 4.0 | 7.0 | 0.00 | 0.06 | 0.06 | 30 | 1015.2 |
| 20260506212711 | 57 | 234 | 4.0 | 6.0 | 0.00 | 0.06 | 0.06 | 30 | 1015.1 |
| 20260506212206 | 57 | 186 | 2.0 | 2.0 | 0.00 | 0.06 | 0.06 | 31 | 1015.4 |
| 20260506211702 | 57 | 246 | 6.0 | 8.0 | 0.00 | 0.06 | 0.06 | 31 | 1015.1 |
| 20260506211158 | 56 | 218 | 3.0 | 5.0 | 0.00 | 0.06 | 0.06 | 31 | 1015.4 |
| 20260506210655 | 57 | 359 | 9.0 | 13.0 | 0.00 | 0.06 | 0.06 | 32 | 1015.1 |
| 20260506210152 | 58 | 236 | 4.0 | 7.0 | 0.00 | 0.06 | 0.06 | 32 | 1014.7 |
| 20260506205649 | 59 | 55 | 3.0 | 6.0 | 0.00 | 0.06 | 0.06 | 33 | 1014.9 |
| 20260506205144 | 58 | 111 | 3.0 | 5.0 | 0.00 | 0.06 | 0.06 | 31 | 1014.3 |
| 20260506204642 | 59 | 229 | 2.0 | 2.0 | 0.00 | 0.06 | 0.06 | 29 | 1014.5 |
| 20260506204138 | 59 | 90 | 0.0 | 1.0 | 0.00 | 0.06 | 0.06 | 29 | 1014.6 |
| 20260506203637 | 58 | 281 | 3.0 | 6.0 | 0.00 | 0.06 | 0.06 | 33 | 1014.3 |
| 20260506203133 | 57 | 176 | 2.0 | 3.0 | 0.00 | 0.06 | 0.06 | 33 | 1014.5 |
| 20260506202632 | 57 | 305 | 3.0 | 3.0 | 0.00 | 0.06 | 0.06 | 37 | 1014.6 |
| 20260506202127 | 57 | 222 | 2.0 | 3.0 | 0.00 | 0.06 | 0.06 | 34 | 1014.5 |
| 20260506201625 | 58 | 154 | 3.0 | 3.0 | 0.00 | 0.06 | 0.06 | 38 | 1014.1 |
| 20260506201121 | 54 | 111 | 3.0 | 5.0 | 0.00 | 0.06 | 0.06 | 41 | 1014.2 |
| 20260506200617 | 54 | 267 | 2.0 | 2.0 | 0.00 | 0.06 | 0.06 | 40 | 1014.3 |
| 20260506200114 | 53 | 105 | 0.0 | 1.0 | 0.00 | 0.06 | 0.06 | 46 | 1014.5 |
| 20260506195611 | 50 | 106 | 3.0 | 5.0 | 0.00 | 0.06 | 0.06 | 47 | 1014.8 |
| 20260506195107 | 53 | 246 | 7.0 | 9.0 | 0.00 | 0.06 | 0.06 | 43 | 1014.8 |
| 20260506194605 | 56 | 220 | 5.0 | 7.0 | 0.00 | 0.06 | 0.06 | 38 | 1014.1 |
| 20260506194101 | 52 | 208 | 2.0 | 3.0 | 0.00 | 0.06 | 0.06 | 38 | 1013.7 |
| 20260506193559 | 53 | 6 | 3.0 | 6.0 | 0.00 | 0.06 | 0.06 | 42 | 1014.3 |
| 20260506193056 | 53 | 251 | 3.0 | 3.0 | 0.00 | 0.06 | 0.06 | 48 | 1014.0 |
| 20260506192553 | 52 | 105 | 0.0 | 0.0 | 0.00 | 0.06 | 0.06 | 55 | 1014.2 |
| 20260506192049 | 52 | 128 | 5.0 | 6.0 | 0.00 | 0.06 | 0.06 | 52 | 1013.6 |
| 20260506191545 | 55 | 78 | 1.0 | 2.0 | 0.00 | 0.06 | 0.06 | 56 | 1014.0 |
| 20260506191041 | 52 | 225 | 1.0 | 1.0 | 0.00 | 0.06 | 0.06 | 57 | 1013.8 |
| 20260506190539 | 50 | 289 | 0.0 | 1.0 | 0.00 | 0.06 | 0.06 | 64 | 1013.8 |
| 20260506190036 | 51 | 210 | 1.0 | 1.0 | 0.00 | 0.06 | 0.06 | 64 | 1014.0 |
| 20260506185533 | 50 | 176 | 0.0 | 1.0 | 0.00 | 0.06 | 0.06 | 64 | 1014.0 |
| 20260506185029 | 51 | 39 | 1.0 | 1.0 | 0.00 | 0.06 | 0.06 | 58 | 1014.1 |
| 20260506184527 | 52 | 95 | 0.0 | 1.0 | 0.00 | 0.06 | 0.06 | 65 | 1014.5 |
| 20260506184024 | 51 | 192 | 0.0 | 1.0 | 0.00 | 0.06 | 0.06 | 63 | 1014.7 |
| 20260506183520 | 50 | 263 | 1.0 | 1.0 | 0.00 | 0.06 | 0.06 | 65 | 1014.6 |
| 20260506183017 | 48 | 274 | 2.0 | 2.0 | 0.00 | 0.06 | 0.06 | 69 | 1014.7 |
| 20260506182514 | 47 | 274 | 2.0 | 2.0 | 0.00 | 0.06 | 0.06 | 73 | 1014.7 |
| 20260506182011 | 46 | 125 | 0.0 | 0.0 | 0.00 | 0.06 | 0.06 | 72 | 1015.3 |
| 20260506181509 | 46 | 129 | 0.0 | 0.0 | 0.00 | 0.06 | 0.06 | 77 | 1015.1 |
| 20260506181006 | 45 | 257 | 0.0 | 0.0 | 0.00 | 0.06 | 0.06 | 76 | 1015.4 |
| 20260506180502 | 44 | 74 | 1.0 | 1.0 | 0.00 | 0.06 | 0.06 | 78 | 1015.2 |
| 20260506175959 | 44 | 140 | 0.0 | 0.0 | 0.00 | 0.06 | 0.06 | 78 | 1015.4 |
| 20260506175455 | 44 | 122 | 1.0 | 1.0 | 0.00 | 0.06 | 0.06 | 78 | 1015.7 |
| 20260506174946 | 43 | 116 | 1.0 | 1.0 | 0.00 | 0.06 | 0.06 | 86 | 1015.4 |
| 20260506174444 | 41 | 105 | 0.0 | 0.0 | 0.07 | 0.06 | 0.06 | 90 | 1015.8 |
| 20260506173940 | 40 | 54 | 1.0 | 1.0 | 0.12 | 0.06 | 0.06 | 89 | 1015.8 |
| 20260506173438 | 40 | 121 | 0.0 | 0.0 | 0.19 | 0.06 | 0.06 | 87 | 1015.9 |
| 20260506172935 | 41 | 184 | 0.0 | 1.0 | 0.19 | 0.04 | 0.04 | 83 | 1016.3 |
| 20260506172432 | 41 | 129 | 2.0 | 2.0 | 0.14 | 0.02 | 0.02 | 82 | 1016.3 |
| 20260506171928 | 43 | 211 | 2.0 | 5.0 | 0.07 | 0.01 | 0.01 | 80 | 1016.0 |
| 20260506171426 | 49 | 358 | 5.0 | 7.0 | 0.00 | 0.00 | 0.00 | 59 | 1015.2 |
| 20260506170924 | 50 | 64 | 1.0 | 1.0 | 0.00 | 0.00 | 0.00 | 58 | 1014.2 |
| 20260506170419 | 50 | 122 | 0.0 | 0.0 | 0.00 | 0.00 | 0.00 | 61 | 1013.8 |
| 20260506165913 | 50 | 95 | 1.0 | 1.0 | 0.00 | 0.00 | 0.00 | 59 | 1013.7 |
| 20260506165411 | 50 | 53 | 0.0 | 1.0 | 0.00 | 0.00 | 0.00 | 55 | 1013.8 |
| 20260506164907 | 51 | 142 | 0.0 | 0.0 | 0.00 | 0.00 | 0.00 | 54 | 1013.5 |
| 20260506164403 | 51 | 315 | 1.0 | 1.0 | 0.00 | 0.00 | 0.00 | 55 | 1013.8 |
| 20260506163901 | 52 | 38 | 2.0 | 2.0 | 0.00 | 0.00 | 0.00 | 54 | 1013.4 |
| 20260506163356 | 53 | 97 | 2.0 | 3.0 | 0.00 | 0.00 | 0.00 | 51 | 1013.4 |
| 20260506162851 | 54 | 164 | 1.0 | 2.0 | 0.00 | 0.00 | 0.00 | 51 | 1013.5 |
| 20260506162349 | 54 | 74 | 3.0 | 5.0 | 0.00 | 0.00 | 0.00 | 51 | 1013.4 |
| 20260506161846 | 54 | 148 | 0.0 | 0.0 | 0.00 | 0.00 | 0.00 | 51 | 1013.8 |
| 20260506161343 | 52 | 59 | 2.0 | 3.0 | 0.00 | 0.00 | 0.00 | 55 | 1014.1 |
| 20260506160836 | 50 | 51 | 2.0 | 2.0 | 0.00 | 0.00 | 0.00 | 60 | 1014.2 |
| 20260506160332 | 49 | 97 | 0.0 | 0.0 | 0.00 | 0.00 | 0.00 | 66 | 1013.8 |
| 20260506155830 | 49 | 106 | 2.0 | 2.0 | 0.00 | 0.00 | 0.00 | 62 | 1013.8 |
| 20260506155326 | 49 | 108 | 1.0 | 3.0 | 0.00 | 0.00 | 0.00 | 61 | 1014.2 |
| 20260506153439 | 48 | 54 | 0.0 | 1.0 | 0.00 | 0.00 | 0.00 | 61 | 1014.1 |
| 20260506152937 | 48 | 276 | 0.0 | 1.0 | 0.00 | 0.00 | 0.00 | 63 | 1014.5 |
| 20260506152433 | 48 | 35 | 1.0 | 1.0 | 0.00 | 0.00 | 0.00 | 66 | 1014.0 |
| 20260506151932 | 47 | 71 | 0.0 | 0.0 | 0.00 | 0.00 | 0.00 | 69 | 1014.1 |
| 20260506151429 | 47 | 143 | 0.0 | 0.0 | 0.00 | 0.00 | 0.00 | 69 | 1014.2 |
| 20260506150926 | 47 | 144 | 0.0 | 0.0 | 0.00 | 0.00 | 0.00 | 71 | 1013.8 |
| 20260506150422 | 47 | 107 | 0.0 | 0.0 | 0.00 | 0.00 | 0.00 | 69 | 1014.1 |
| 20260506145919 | 48 | 53 | 2.0 | 2.0 | 0.00 | 0.00 | 0.00 | 66 | 1013.8 |
| 20260506145415 | 47 | 199 | 0.0 | 0.0 | 0.00 | 0.00 | 0.00 | 69 | 1014.2 |
| 20260506144913 | 46 | 106 | 1.0 | 1.0 | 0.00 | 0.00 | 0.00 | 68 | 1014.1 |
| 20260506144409 | 47 | 100 | 1.0 | 1.0 | 0.00 | 0.00 | 0.00 | 69 | 1014.2 |
| 20260506143908 | 47 | 238 | 0.0 | 0.0 | 0.00 | 0.00 | 0.00 | 67 | 1014.2 |
| 20260506143404 | 48 | 140 | 0.0 | 0.0 | 0.00 | 0.00 | 0.00 | 67 | 1014.1 |
| 20260506142903 | 47 | 220 | 0.0 | 0.0 | 0.00 | 0.00 | 0.00 | 69 | 1014.0 |
| 20260506142401 | 47 | 97 | 1.0 | 1.0 | 0.00 | 0.00 | 0.00 | 71 | 1014.1 |
| 20260506141858 | 46 | 137 | 0.0 | 0.0 | 0.00 | 0.00 | 0.00 | 74 | 1014.2 |
| 20260506141356 | 46 | 143 | 0.0 | 0.0 | 0.00 | 0.00 | 0.00 | 72 | 1013.7 |
| 20260506140854 | 46 | 117 | 0.0 | 0.0 | 0.00 | 0.00 | 0.00 | 72 | 1014.0 |
| 20260506140351 | 44 | 107 | 0.0 | 0.0 | 0.00 | 0.00 | 0.00 | 77 | 1014.0 |
| 20260506135848 | 42 | 150 | 0.0 | 0.0 | 0.00 | 0.00 | 0.00 | 83 | 1014.1 |
| 20260506135345 | 42 | 132 | 0.0 | 0.0 | 0.00 | 0.00 | 0.00 | 85 | 1014.2 |
| 20260506134841 | 42 | 118 | 0.0 | 0.0 | 0.00 | 0.00 | 0.00 | 86 | 1014.3 |
| 20260506134337 | 41 | 70 | 0.0 | 0.0 | 0.00 | 0.00 | 0.00 | 89 | 1014.2 |
| 20260506133834 | 39 | 115 | 0.0 | 0.0 | 0.00 | 0.00 | 0.00 | 92 | 1014.2 |
| 20260506133331 | 39 | 105 | 0.0 | 0.0 | 0.00 | 0.00 | 0.00 | 94 | 1014.2 |
| 20260506132828 | 38 | 153 | 0.0 | 0.0 | 0.00 | 0.00 | 0.00 | 94 | 1014.1 |
| 20260506132325 | 38 | 141 | 0.0 | 0.0 | 0.00 | 0.00 | 0.00 | 94 | 1014.3 |
| 20260506131823 | 38 | 126 | 0.0 | 0.0 | 0.00 | 0.00 | 0.00 | 94 | 1014.1 |
| 20260506131319 | 38 | 126 | 0.0 | 0.0 | 0.00 | 0.00 | 0.00 | 94 | 1014.0 |
| 20260506130816 | 38 | 28 | 0.0 | 0.0 | 0.00 | 0.00 | 0.00 | 94 | 1014.0 |
| 20260506130312 | 38 | 142 | 0.0 | 0.0 | 0.00 | 0.00 | 0.00 | 94 | 1014.0 |
| 20260506125811 | 38 | 155 | 0.0 | 1.0 | 0.00 | 0.00 | 0.00 | 93 | 1013.6 |
| 20260506125308 | 38 | 198 | 0.0 | 0.0 | 0.00 | 0.00 | 0.00 | 93 | 1013.8 |
| 20260506124807 | 38 | 208 | 0.0 | 0.0 | 0.00 | 0.00 | 0.00 | 94 | 1013.7 |
| 20260506124304 | 37 | 191 | 0.0 | 0.0 | 0.00 | 0.00 | 0.00 | 95 | 1013.6 |
| 20260506123801 | 37 | 151 | 0.0 | 0.0 | 0.00 | 0.00 | 0.00 | 95 | 1013.5 |
| 20260506123300 | 37 | 151 | 0.0 | 0.0 | 0.00 | 0.00 | 0.00 | 95 | 1013.2 |
| 20260506122756 | 37 | 151 | 0.0 | 0.0 | 0.00 | 0.00 | 0.00 | 95 | 1013.4 |
| 20260506122253 | 37 | 151 | 0.0 | 0.0 | 0.00 | 0.00 | 0.00 | 95 | 1013.2 |
| 20260506121751 | 37 | 150 | 0.0 | 0.0 | 0.00 | 0.00 | 0.00 | 95 | 1013.5 |
| 20260506121248 | 37 | 144 | 0.0 | 0.0 | 0.00 | 0.00 | 0.00 | 95 | 1013.4 |
| 20260506120745 | 37 | 139 | 0.0 | 0.0 | 0.00 | 0.00 | 0.00 | 94 | 1013.1 |
| 20260506120243 | 37 | 124 | 0.0 | 0.0 | 0.00 | 0.00 | 0.00 | 94 | 1013.2 |
| 20260506115740 | 38 | 142 | 0.0 | 0.0 | 0.00 | 0.00 | 0.00 | 94 | 1013.4 |
| 20260506115238 | 38 | 110 | 0.0 | 0.0 | 0.00 | 0.00 | 0.00 | 94 | 1013.5 |
| 20260506114736 | 38 | 111 | 0.0 | 0.0 | 0.00 | 0.00 | 0.00 | 93 | 1013.4 |
| 20260506114233 | 38 | 148 | 0.0 | 0.0 | 0.00 | 0.00 | 0.00 | 93 | 1013.0 |
| 20260506113732 | 39 | 138 | 0.0 | 0.0 | 0.00 | 0.00 | 0.00 | 93 | 1013.4 |
| 20260506113229 | 38 | 139 | 0.0 | 0.0 | 0.00 | 0.00 | 0.00 | 93 | 1013.1 |
| 20260506112725 | 38 | 206 | 0.0 | 0.0 | 0.00 | 0.00 | 0.00 | 92 | 1012.9 |
| 20260506112223 | 38 | 211 | 0.0 | 0.0 | 0.00 | 0.00 | 0.00 | 94 | 1013.2 |
| 20260506111720 | 38 | 183 | 0.0 | 0.0 | 0.00 | 0.00 | 0.00 | 95 | 1013.1 |
| 20260506111218 | 38 | 196 | 0.0 | 0.0 | 0.00 | 0.00 | 0.00 | 94 | 1012.8 |
| 20260506110715 | 38 | 197 | 0.0 | 0.0 | 0.00 | 0.00 | 0.00 | 94 | 1012.9 |
| 20260506110213 | 38 | 125 | 0.0 | 0.0 | 0.00 | 0.00 | 0.00 | 95 | 1012.8 |
| 20260506105709 | 37 | 143 | 0.0 | 0.0 | 0.00 | 0.00 | 0.00 | 95 | 1013.1 |
| 20260506105206 | 37 | 126 | 0.0 | 0.0 | 0.00 | 0.00 | 0.00 | 94 | 1013.2 |
| 20260506104704 | 37 | 160 | 0.0 | 0.0 | 0.00 | 0.00 | 0.00 | 94 | 1012.8 |
| 20260506104201 | 37 | 174 | 0.0 | 0.0 | 0.00 | 0.00 | 0.00 | 95 | 1012.9 |
| 20260506103658 | 37 | 205 | 0.0 | 0.0 | 0.00 | 0.00 | 0.00 | 94 | 1013.1 |
| 20260506103155 | 37 | 193 | 0.0 | 0.0 | 0.00 | 0.00 | 0.00 | 94 | 1012.8 |
| 20260506102653 | 37 | 86 | 0.0 | 0.0 | 0.00 | 0.00 | 0.00 | 93 | 1012.6 |
| 20260506102150 | 37 | 186 | 0.0 | 0.0 | 0.00 | 0.00 | 0.00 | 93 | 1012.8 |
| 20260506101647 | 38 | 152 | 0.0 | 0.0 | 0.00 | 0.00 | 0.00 | 92 | 1013.0 |
| 20260506101144 | 38 | 132 | 0.0 | 0.0 | 0.00 | 0.00 | 0.00 | 91 | 1012.6 |
| 20260506100642 | 38 | 122 | 0.0 | 0.0 | 0.00 | 0.00 | 0.00 | 91 | 1012.8 |
| 20260506100140 | 39 | 121 | 0.0 | 0.0 | 0.00 | 0.00 | 0.00 | 91 | 1013.0 |
| 20260506095638 | 39 | 143 | 0.0 | 0.0 | 0.00 | 0.00 | 0.00 | 90 | 1012.9 |
| 20260506095135 | 39 | 142 | 0.0 | 0.0 | 0.00 | 0.00 | 0.00 | 90 | 1012.6 |
| 20260506094632 | 39 | 219 | 0.0 | 0.0 | 0.00 | 0.00 | 0.00 | 90 | 1012.8 |
| 20260506094130 | 38 | 226 | 0.0 | 0.0 | 0.00 | 0.00 | 0.00 | 90 | 1012.5 |
| 20260506093628 | 39 | 226 | 0.0 | 0.0 | 0.00 | 0.00 | 0.00 | 90 | 1012.9 |
| 20260506093125 | 39 | 220 | 0.0 | 0.0 | 0.00 | 0.00 | 0.00 | 90 | 1012.9 |
| 20260506092623 | 39 | 197 | 0.0 | 0.0 | 0.00 | 0.00 | 0.00 | 89 | 1012.4 |
| 20260506092119 | 39 | 192 | 0.0 | 0.0 | 0.00 | 0.00 | 0.00 | 90 | 1012.9 |
| 20260506091618 | 38 | 164 | 0.0 | 0.0 | 0.00 | 0.00 | 0.00 | 90 | 1012.6 |
| 20260506091115 | 38 | 152 | 0.0 | 0.0 | 0.00 | 0.00 | 0.00 | 91 | 1012.6 |
| 20260506090613 | 38 | 147 | 0.0 | 0.0 | 0.00 | 0.00 | 0.00 | 91 | 1012.6 |
| 20260506090109 | 38 | 147 | 0.0 | 0.0 | 0.00 | 0.00 | 0.00 | 90 | 1012.6 |
| 20260506085606 | 39 | 147 | 0.0 | 0.0 | 0.00 | 0.00 | 0.00 | 90 | 1013.0 |
| 20260506085102 | 39 | 122 | 0.0 | 0.0 | 0.00 | 0.00 | 0.00 | 90 | 1012.9 |
| 20260506084559 | 39 | 129 | 0.0 | 0.0 | 0.00 | 0.00 | 0.00 | 90 | 1013.1 |
| 20260506084055 | 39 | 218 | 0.0 | 0.0 | 0.00 | 0.00 | 0.00 | 89 | 1012.6 |
| 20260506083553 | 39 | 218 | 0.0 | 0.0 | 0.00 | 0.00 | 0.00 | 89 | 1012.6 |
| 20260506083050 | 39 | 219 | 0.0 | 0.0 | 0.00 | 0.00 | 0.00 | 88 | 1012.9 |
| 20260506082546 | 39 | 229 | 0.0 | 0.0 | 0.00 | 0.00 | 0.00 | 88 | 1012.8 |
| 20260506082042 | 40 | 146 | 0.0 | 0.0 | 0.00 | 0.00 | 0.00 | 87 | 1013.0 |
| 20260506081541 | 40 | 140 | 0.0 | 0.0 | 0.00 | 0.00 | 0.00 | 87 | 1013.0 |
| 20260506081038 | 40 | 140 | 0.0 | 0.0 | 0.00 | 0.00 | 0.00 | 88 | 1013.0 |
| 20260506080535 | 40 | 131 | 0.0 | 0.0 | 0.00 | 0.00 | 0.00 | 88 | 1013.0 |
| 20260506073519 | 41 | 125 | 0.0 | 0.0 | 0.00 | 0.00 | 0.00 | 86 | 1013.1 |
| 20260506073016 | 41 | 136 | 0.0 | 0.0 | 0.00 | 0.00 | 0.00 | 86 | 1013.0 |
| 20260506072513 | 41 | 125 | 0.0 | 0.0 | 0.00 | 0.00 | 0.00 | 86 | 1013.1 |
| 20260506072010 | 40 | 119 | 0.0 | 0.0 | 0.00 | 0.00 | 0.00 | 87 | 1013.2 |
| 20260506071508 | 40 | 203 | 0.0 | 0.0 | 0.00 | 0.00 | 0.00 | 84 | 1013.0 |
| 20260506071005 | 40 | 203 | 0.0 | 0.0 | 0.00 | 0.00 | 0.00 | 84 | 1013.4 |
| 20260506070503 | 41 | 203 | 0.0 | 0.0 | 0.00 | 0.00 | 0.00 | 83 | 1013.2 |
| 20260506062440 | 41 | 178 | 0.0 | 0.0 | 0.00 | 0.00 | 0.00 | 81 | 1013.4 |
| 20260506061936 | 42 | 178 | 0.0 | 0.0 | 0.00 | 0.00 | 0.00 | 80 | 1013.0 |
| 20260506061432 | 42 | 198 | 0.0 | 0.0 | 0.00 | 0.00 | 0.00 | 79 | 1013.2 |
| 20260506060930 | 42 | 133 | 0.0 | 0.0 | 0.00 | 0.00 | 0.00 | 78 | 1013.1 |
| 20260506060428 | 42 | 147 | 0.0 | 0.0 | 0.00 | 0.00 | 0.00 | 78 | 1013.1 |
| 20260506051400 | 47 | 139 | 1.0 | 1.0 | 0.00 | 0.00 | 0.00 | 64 | 1012.6 |
| 20260506050857 | 47 | 65 | 1.0 | 2.0 | 0.00 | 0.00 | 0.00 | 60 | 1012.4 |
| 20260506050355 | 47 | 208 | 0.0 | 0.0 | 0.00 | 0.00 | 0.00 | 62 | 1012.5 |
| 20260506044845 | 47 | 196 | 0.0 | 0.0 | 0.00 | 0.00 | 0.00 | 64 | 1012.3 |
| 20260506044343 | 47 | 186 | 0.0 | 0.0 | 0.00 | 0.00 | 0.00 | 65 | 1012.6 |
| 20260506043840 | 47 | 245 | 0.0 | 0.0 | 0.00 | 0.00 | 0.00 | 66 | 1012.5 |
| 20260506043337 | 46 | 272 | 1.0 | 1.0 | 0.00 | 0.00 | 0.00 | 69 | 1012.5 |
| 20260506042835 | 46 | 188 | 0.0 | 0.0 | 0.00 | 0.00 | 0.00 | 70 | 1012.4 |
| 20260506042334 | 46 | 188 | 0.0 | 0.0 | 0.00 | 0.00 | 0.00 | 70 | 1012.4 |
| 20260506041833 | 46 | 205 | 0.0 | 0.0 | 0.00 | 0.00 | 0.00 | 70 | 1012.4 |
| 20260506041329 | 46 | 176 | 0.0 | 0.0 | 0.00 | 0.00 | 0.00 | 71 | 1012.0 |
| 20260506040826 | 46 | 204 | 0.0 | 0.0 | 0.00 | 0.00 | 0.00 | 71 | 1012.1 |
| 20260506040324 | 46 | 207 | 0.0 | 0.0 | 0.00 | 0.00 | 0.00 | 71 | 1011.9 |
| 20260506035820 | 45 | 207 | 0.0 | 0.0 | 0.00 | 0.00 | 0.00 | 72 | 1011.9 |
| 20260506035317 | 45 | 180 | 0.0 | 0.0 | 0.00 | 0.00 | 0.00 | 72 | 1012.0 |
| 20260506034814 | 46 | 179 | 0.0 | 0.0 | 0.00 | 0.00 | 0.00 | 71 | 1011.7 |
| 20260506034311 | 46 | 204 | 0.0 | 0.0 | 0.00 | 0.00 | 0.00 | 70 | 1011.8 |
| 20260506033808 | 46 | 187 | 0.0 | 0.0 | 0.00 | 0.00 | 0.00 | 69 | 1011.5 |
| 20260506033305 | 46 | 237 | 0.0 | 0.0 | 0.00 | 0.00 | 0.00 | 70 | 1011.5 |
| 20260506032802 | 46 | 220 | 0.0 | 0.0 | 0.00 | 0.00 | 0.00 | 72 | 1011.7 |
| 20260506032259 | 46 | 189 | 0.0 | 0.0 | 0.00 | 0.00 | 0.00 | 72 | 1011.2 |
| 20260506031755 | 47 | 204 | 0.0 | 0.0 | 0.00 | 0.00 | 0.00 | 70 | 1011.4 |
| 20260506031253 | 48 | 132 | 0.0 | 0.0 | 0.00 | 0.00 | 0.00 | 69 | 1011.4 |
| 20260506030751 | 48 | 216 | 1.0 | 1.0 | 0.00 | 0.00 | 0.00 | 66 | 1011.4 |
| 20260506030249 | 49 | 121 | 0.0 | 0.0 | 0.00 | 0.00 | 0.00 | 66 | 1011.4 |